DW7087 Weather Reports


time (UTC)temp
F
wind
direction
speed
knots
gust
knots
rain 1hr
in
rain 24hr
in
rain mn
in
humidity
%
barometer
mb
20190421180024 70 63 1.7 7.0 0.00 0.00 0.00 36 1013.9
20190421175124 71 77 1.7 4.3 0.00 0.00 0.00 35 1014.0
20190421174224 72 2 0.9 5.2 0.00 0.00 0.00 34 1014.0
20190421173324 72 51 0.9 4.3 0.00 0.00 0.00 33 1014.0
20190421172424 73 64 2.6 6.1 0.00 0.00 0.00 32 1014.0
20190421171524 73 54 2.6 7.0 0.00 0.00 0.00 34 1014.1
20190421170624 74 27 2.6 5.2 0.00 0.00 0.00 34 1014.2
20190421165724 74 41 3.5 6.1 0.00 0.00 0.00 34 1014.2
20190421164824 75 57 1.7 6.1 0.00 0.00 0.00 34 1014.4
20190421163924 75 45 1.7 7.0 0.00 0.00 0.00 33 1014.5
20190421163024 75 64 0.9 5.2 0.00 0.00 0.00 32 1014.5
20190421162124 76 62 0.9 4.3 0.00 0.00 0.00 32 1014.7
20190421161224 76 70 0.9 3.5 0.00 0.00 0.00 32 1014.8
20190421160324 76 34 1.7 5.2 0.00 0.00 0.00 31 1015.0
20190421155424 76 77 1.7 5.2 0.00 0.00 0.00 30 1015.1
20190421154525 75 0 0.0 0.0 0.00 0.00 0.00 28 1015.3
20190421153624 75 0 0.0 0.0 0.00 0.00 0.00 30 1015.3
20190421152724 76 64 0.9 3.5 0.00 0.00 0.00 26 1015.5
20190421151824 76 0 0.0 0.0 0.00 0.00 0.00 26 1015.5
20190421150924 76 0 0.0 0.0 0.00 0.00 0.00 26 1015.7
20190421150024 76 64 0.9 5.2 0.00 0.00 0.00 26 1015.9
20190421145124 76 135 1.7 5.2 0.00 0.00 0.00 24 1016.0
20190421144224 76 143 0.9 4.3 0.00 0.00 0.00 26 1016.2
20190421143324 76 277 0.0 2.6 0.00 0.00 0.00 27 1016.3
20190421142424 76 147 0.9 6.1 0.00 0.00 0.00 25 1016.4
20190421141525 76 136 3.5 6.1 0.00 0.00 0.00 26 1016.6
20190421140624 76 221 1.7 3.5 0.00 0.00 0.00 26 1016.6
20190421135724 76 157 0.9 3.5 0.00 0.00 0.00 27 1016.8
20190421134824 76 135 0.0 2.6 0.00 0.00 0.00 27 1017.0
20190421133924 76 146 1.7 6.1 0.00 0.00 0.00 27 1017.1
20190421133025 75 166 1.7 7.0 0.00 0.00 0.00 28 1017.3
20190421132124 75 67 0.9 3.5 0.00 0.00 0.00 28 1017.3
20190421131224 75 336 2.6 6.1 0.00 0.00 0.00 32 1017.5
20190421130324 75 99 1.7 5.2 0.00 0.00 0.00 30 1017.6
20190421125424 74 213 0.0 2.6 0.00 0.00 0.00 32 1017.8
20190421123110 74 36 0.0 3.5 0.00 0.00 0.00 32 1018.2
20190421122210 73 23 1.7 3.5 0.00 0.00 0.00 30 1018.4
20190421121310 73 57 0.9 3.5 0.00 0.00 0.00 32 1018.4
20190421120410 72 0 0.0 0.0 0.00 0.00 0.00 32 1018.4
20190421115510 73 90 0.0 2.6 0.00 0.00 0.00 34 1018.7
20190421114610 73 66 0.9 2.6 0.00 0.00 0.00 34 1018.9
20190421113711 72 135 0.0 3.5 0.00 0.00 0.00 34 1019.0
20190421112810 71 0 0.0 0.0 0.00 0.00 0.00 38 1019.1
20190421111910 71 0 0.0 0.0 0.00 0.00 0.00 38 1019.1
20190421111010 70 0 0.0 0.0 0.00 0.00 0.00 39 1019.3
20190421110110 70 47 0.9 3.5 0.00 0.00 0.00 39 1019.4
20190421105210 70 45 0.0 3.5 0.00 0.00 0.00 40 1019.6
20190421104310 69 45 0.0 0.9 0.00 0.00 0.00 43 1019.8
20190421103410 68 17 0.9 3.5 0.00 0.00 0.00 44 1020.0
20190421102510 68 59 0.0 3.5 0.00 0.00 0.00 45 1020.2
20190421101641 68 181 0.0 2.6 0.00 0.00 0.00 51 1020.2
20190421100710 67 0 0.0 0.0 0.00 0.00 0.00 51 1020.3
20190421095810 67 348 0.9 3.5 0.00 0.00 0.00 52 1020.6
20190421094910 65 19 0.9 4.3 0.00 0.00 0.00 52 1020.5
20190421094010 65 25 0.9 3.5 0.00 0.00 0.00 53 1020.8
20190421093110 64 0 0.0 0.0 0.00 0.00 0.00 54 1021.0
20190421092210 64 56 0.9 2.6 0.00 0.00 0.00 57 1021.0
20190421091310 63 64 0.0 2.6 0.00 0.00 0.00 58 1021.1
20190421090410 62 6 0.0 1.7 0.00 0.00 0.00 61 1021.3
20190421085510 60 240 0.9 3.5 0.00 0.00 0.00 63 1021.4
20190421084610 59 172 0.0 3.5 0.00 0.00 0.00 65 1021.5
20190421083711 58 0 0.0 0.0 0.00 0.00 0.00 67 1021.7
20190421082810 56 48 0.9 2.6 0.00 0.00 0.00 71 1021.7
20190421081910 55 45 0.0 0.9 0.00 0.00 0.00 72 1021.8
20190421081010 54 66 0.0 1.7 0.00 0.00 0.00 74 1022.0
20190421080110 53 49 0.9 3.5 0.00 0.00 0.00 79 1022.1
20190421075210 52 72 0.9 3.5 0.00 0.00 0.00 85 1022.0
20190421074310 51 45 0.9 2.6 0.00 0.00 0.00 92 1022.2
20190421073410 49 0 0.0 0.0 0.00 0.00 0.00 95 1022.2
20190421072513 48 0 0.0 0.0 0.00 0.00 0.00 96 1022.1
20190421071610 47 1 0.0 0.9 0.00 0.00 0.00 97 1022.2
20190421070710 46 0 0.0 0.0 0.00 0.00 0.00 97 1022.3
20190421065810 44 0 0.0 0.0 0.00 0.00 0.00 97 1022.5
20190421064910 44 0 0.0 0.0 0.00 0.00 0.00 97 1022.5
20190421064010 43 0 0.0 0.0 0.00 0.00 0.00 97 1022.6
20190421063110 42 0 0.0 0.0 0.00 0.00 0.00 96 1022.5
20190421062210 41 0 0.0 0.0 0.00 0.00 0.00 95 1022.7
20190421061310 41 0 0.0 0.0 0.00 0.00 0.00 96 1022.6
20190421060412 40 0 0.0 0.0 0.00 0.00 0.00 95 1022.7
20190421055510 40 0 0.0 0.0 0.00 0.00 0.00 95 1022.9
20190421054610 40 0 0.0 0.0 0.00 0.00 0.00 94 1022.8
20190421053710 40 0 0.0 0.0 0.00 0.00 0.00 94 1022.9
20190421052810 39 0 0.0 0.0 0.00 0.00 0.00 94 1022.9
20190421051910 40 0 0.0 0.0 0.00 0.00 0.00 94 1022.9
20190421051010 40 0 0.0 0.0 0.00 0.00 0.00 94 1022.9
20190421050110 40 0 0.0 0.0 0.00 0.00 0.00 93 1022.9
20190421045210 40 0 0.0 0.0 0.00 0.00 0.00 93 1022.9
20190421044310 40 0 0.0 0.0 0.00 0.00 0.00 93 1022.9
20190421043410 40 0 0.0 0.0 0.00 0.00 0.00 93 1022.9
20190421042510 41 0 0.0 0.0 0.00 0.00 0.00 93 1023.0
20190421041610 41 0 0.0 0.0 0.00 0.00 0.00 93 1023.0
20190421040710 41 0 0.0 0.0 0.00 0.00 0.00 92 1023.2
20190421035810 41 0 0.0 0.0 0.00 0.00 0.00 92 1023.3
20190421034910 42 0 0.0 0.0 0.00 0.00 0.00 91 1023.3
20190421034010 42 0 0.0 0.0 0.00 0.00 0.00 91 1023.3
20190421033110 42 0 0.0 0.0 0.00 0.00 0.00 91 1023.6
20190421032210 42 0 0.0 0.0 0.00 0.00 0.00 91 1023.7
20190421031310 42 0 0.0 0.0 0.00 0.00 0.00 90 1023.6
20190421030410 42 0 0.0 0.0 0.00 0.00 0.00 90 1023.8
20190421025510 42 0 0.0 0.0 0.00 0.00 0.00 90 1023.7
20190421024610 43 0 0.0 0.0 0.00 0.00 0.00 89 1023.8
20190421023710 43 0 0.0 0.0 0.00 0.00 0.00 87 1024.0
20190421022810 43 0 0.0 0.0 0.00 0.00 0.00 87 1024.1
20190421021910 43 0 0.0 0.0 0.00 0.00 0.00 86 1024.3
20190421021010 43 0 0.0 0.0 0.00 0.00 0.00 86 1024.3
20190421020110 44 0 0.0 0.0 0.00 0.00 0.00 86 1024.4
20190421015210 44 0 0.0 0.0 0.00 0.00 0.00 85 1024.5
20190421014310 44 0 0.0 0.0 0.00 0.00 0.00 85 1024.6
20190421013410 45 0 0.0 0.0 0.00 0.00 0.00 83 1024.7
20190421012510 45 0 0.0 0.0 0.00 0.00 0.00 82 1025.0
20190421011610 45 0 0.0 0.0 0.00 0.00 0.00 81 1024.9
20190421010710 45 0 0.0 0.0 0.00 0.00 0.00 81 1025.2
20190421005810 46 0 0.0 0.0 0.00 0.00 0.00 81 1025.1
20190421004910 46 0 0.0 0.0 0.00 0.00 0.00 81 1025.4
20190421004010 46 0 0.0 0.0 0.00 0.00 0.00 81 1025.5
20190421003110 47 0 0.0 0.0 0.00 0.00 0.00 81 1025.5
20190421002210 47 0 0.0 0.0 0.00 0.00 0.00 80 1025.5
20190421001310 47 0 0.0 0.0 0.00 0.00 0.00 79 1025.6
20190421000410 48 0 0.0 0.0 0.00 0.00 0.00 79 1025.7
20190420235510 48 0 0.0 0.0 0.00 0.00 0.00 78 1025.9
20190420234610 49 0 0.0 0.0 0.00 0.00 0.00 76 1026.0
20190420233710 49 0 0.0 0.0 0.00 0.00 0.00 76 1026.1
20190420232810 49 0 0.0 0.0 0.00 0.00 0.00 75 1026.2
20190420231910 49 0 0.0 0.0 0.00 0.00 0.00 75 1026.4
20190420231010 50 0 0.0 0.0 0.00 0.00 0.00 74 1026.4
20190420230110 50 0 0.0 0.0 0.00 0.00 0.00 73 1026.6
20190420225210 50 0 0.0 0.0 0.00 0.00 0.00 72 1026.5
20190420224310 51 0 0.0 0.0 0.00 0.00 0.00 71 1026.5
20190420223410 52 0 0.0 0.0 0.00 0.00 0.00 71 1026.5
20190420222510 52 0 0.0 0.0 0.00 0.00 0.00 69 1026.7
20190420221610 53 0 0.0 0.0 0.00 0.00 0.00 67 1026.7
20190420220710 53 0 0.0 0.0 0.00 0.00 0.00 65 1026.7
20190420215810 53 0 0.0 0.0 0.00 0.00 0.00 64 1026.9
20190420214910 54 0 0.0 0.0 0.00 0.00 0.00 63 1026.8
20190420214010 55 0 0.0 0.0 0.00 0.00 0.00 62 1026.7
20190420213110 55 0 0.0 0.0 0.00 0.00 0.00 61 1026.8
20190420212210 56 0 0.0 0.0 0.00 0.00 0.00 61 1026.8
20190420211310 56 0 0.0 0.0 0.00 0.00 0.00 60 1026.7
20190420210410 57 0 0.0 0.0 0.00 0.00 0.00 58 1026.7
20190420205510 57 0 0.0 0.0 0.00 0.00 0.00 56 1026.8
20190420204610 58 0 0.0 0.0 0.00 0.00 0.00 56 1026.7
20190420203710 58 0 0.0 0.0 0.00 0.00 0.00 57 1026.7
20190420202810 59 0 0.0 0.0 0.00 0.00 0.00 57 1026.7
20190420201910 60 0 0.0 0.0 0.00 0.00 0.00 58 1026.6
20190420201010 60 0 0.0 0.0 0.00 0.00 0.00 57 1026.8
20190420200110 61 0 0.0 0.0 0.00 0.00 0.00 56 1026.6
20190420195210 62 0 0.0 0.0 0.00 0.00 0.00 56 1026.6
20190420194310 63 0 0.0 0.0 0.00 0.00 0.00 53 1026.5
20190420193410 64 0 0.0 0.0 0.00 0.00 0.00 52 1026.4
20190420192510 65 0 0.0 0.0 0.00 0.00 0.00 52 1026.4
20190420191610 67 0 0.0 0.0 0.00 0.00 0.00 50 1026.4
20190420190710 67 0 0.0 0.0 0.00 0.00 0.00 48 1026.3
20190420185810 68 1 0.0 2.6 0.00 0.00 0.00 46 1026.2
20190420184910 69 1 0.0 0.9 0.00 0.00 0.00 44 1026.1
20190420184010 70 34 0.0 1.7 0.00 0.00 0.00 43 1026.0
20190420183110 70 27 0.0 1.7 0.00 0.00 0.00 41 1026.0
20190420182210 71 0 0.0 0.0 0.00 0.00 0.00 39 1026.1
20190420181310 71 0 0.0 0.0 0.00 0.00 0.00 37 1026.0